Showing default

XM-4, 29520

Orbit data source: Space-Track

XM-4, 29520 is a payload satellite owned by XM Radio (US) in GEO that was launched on Mon, 30 Oct 2006 UTC via a ZENIT-3SL launch vehicle from the Sea Launch (SEAL). Payload-class satellites include a variety of spacecraft equipped with specific instruments for various scientific and technological missions. These include communications satellites like Starlink; space stations such as the ISS; scientific satellites like the Hubble; Earth observation satellites from companies like Planet Labs, Umbra, and HawkEye 360; GPS; miniature CubeSats for education and research; and military/defense satellites.

Not visible in the next 10 days
Identifier
29520, 2006-049A
Orbit
GEO
Country
Flag of USUS
Related business
Manufacturer
Boeing/ES
Mission
Non-operational Commercial Communications
Bus & Motor
BSS-702HP, R-4D-11-300
Mass
5,193 kg wet, ~2,700 kg dry
Launch date (UTC)
2006-10-30 (19 years ago)
Launch vehicle
ZENIT-3SL
Launch site
Sea Launch (SEAL)
Object type
Payload
Rocket body
Debris
Shape & HBR
Box + 2 Pan, 20.2 m
Radar Cross Section
61.334 m², Large (>1 m²)

Expand to show TLE details & history
Last TLE update: 12 hours ago

TLE from 12 hours ago
0 XM-4
1 29520U 06049A   25342.81801162 -.00000132  00000-0  00000-0 0  9997
2 29520   2.3553  83.4820 0005180 265.8730 210.4684  0.98815719 49464
Epoch: 2025-12-08T19:37Z
TLE epoch observation values (Epoch: 2025-12-08T19:37:56.203Z)
Latitude
2.10104°
Longitude
-172.48359°
Altitude
36,217.963 km
Speed
3.058 km/s
True Right ascension
13h 19m 14s
True Declination
2° 05' 56"
Sunlit
Object was in daylight at epoch
Visualization orbit readout
Latitude
Unknown
Longitude
Unknown
Altitude
Unknown
Speed
Unknown
Apparent Right ascension
Unknown
Apparent Declination
Unknown
Sunlit
N/A
Visualization observer readout
Local Sidereal Time
05:35:02
Azimuth
Unknown
Elevation
Unknown
Doppler factor
Unknown
Orbital elements
Apogee altitude
36,222.901 km
Perigee altitude
36,178.789 km
Semi-major axis
42,578.982 km
Eccentricity
0.00052
Inclination
2.3553°
RAAN
83.482°
Arg. of periapsis
265.873°
True anomaly
210.43832°
Mean anomaly
210.4684°
Eccentric anomaly
210.45336°
Mean motion
0.24703 °/min
Orbital period
1,457.31 mins
BSTAR
0
Loading maneuver chart data...
Computing Atmospheric mass density...
Loading historical data...
Loading historical data...
Loading historical data...
Loading historical data...
Loading historical data...
Loading historical data...
Loading historical data...
Other satellites on launch #49 in the year 2006 (2006-10-30 UTC)

Documentation

Showing up to 5 results
|